Location: Izdebno
(52.6670°N, 16.2170°E)
Time: 05:24:51
(UTC+02:00)

A-11 Canister half - Pass Details

Date: 12 February 2023
Orbit: 1526 x 1682 km, 47.3° (Epoch: 25 March)

Event Time Altitude Azimuth Distance (km) Brightness Sun altitude
Rises 02:38:10 0° 206° (SSW) 4,697 - -41.2°
Reaches altitude 10° 02:41:42 10° 196° (SSW) 3,703 - -40.8°
Maximum altitude 02:49:20 30° 140° (SE) 2,475 - -39.9°
Exits shadow 02:49:39 30° 137° (SE) 2,478 10.0 -39.8°
Drops below altitude 10° 02:56:58 10° 85° (E) 3,702 11.6 -38.9°
Sets 03:00:29 0° 75° (ENE) 4,696 12.4 -38.5°
